SCP
0 0 0 0 0 0 0 0 0 0 0 0 0 0 0 0 0 0 0 0 0 0 0 0 0 0 0 0 0 0 0 0 0 0 0 0 0 0 0 0 0 0 0
0 0 0 0 0 0 0 0 0 0 0 0 0 0 0 0 0 0 0 0 0 0 0 0 0 0 0 0 0 0 0 0 0 0 0 0 0 0 0 0 0 0 0
0 0 0 0 0 0 0 0 0 0 0 0 0 0 0 0 0 0 0 0 0 0 0 0 0 0 0 0 0 0 0 0 0 0 0 0 0 0 0 0 0 0 0
0 0 0 0 0 0 0 0 0 0 0 0 0 0 0 0 0 0 0 0 0 0 0 0 0 0 0 0 0 0 0 0 0 0 0 0 0 0 0 0 0 0 0
0 0 0 0 0 0 0 0 0 0 0 0 0 0 0 0 0 0 0 0 0 0 0 0 0 0 0 0 0 0 0 0 0 0 0 0 0 0 0 0 0 0 0
0 0 0 0 0 0 0 0 0 0 0 0 0 0 0 0 0 0 0 0 0 0 0 0 0 0 0 0 0 0 0 0 0 0 0 0 0 0 0 0 0 0 0
0 0 0 0 0 0 0 0 0 0 0 0 0 0 0 0 0 0 0 0 0 0 0 0 0 0 0 0 0 0 0 0 0 0 0 0 0 0 0 0 0 0 0
0 0 0 0 0 0 0 0 0 0 0 0 0 0 0 0 0 0 0 0 0 0 0 0 0 0 0 0 0 0 0 0 0 0 0 0 0 0 0 0 0 0 0
0 0 0 0 0 0 0 0 0 0 0 0 0 0 0 0 0 0 0 0 0 0 0 0 0 0 0 0 0 0 0 0 0 0 0 0 0 0 0 0 0 0 0
0 0 0 0 0 0 0 0 0 0 0 0 0 0 0 0 0 0 0 0 0 0 0 0 0 0 0 0 0 0 0 0 0 0 0 0 0 0 0 0 0 0 0
0 0 0 0 0 0 0 0 0 0 0 0 0 0 0 0 0 0 0 0 0 0 0 0 0 0 0 0 0 0 0 0 0 0 0 0 0 0 0 0 0 0 0
0 0 0 0 0 0 0 0 0 0 0 0 0 0 0 0 0 0 0 0 0 0 0 0 0 0 0 0 0 0 0 0 0 0 0 0 0 0 0 0 0 0 0
0 0 0 0 0 0 0 0 0 0 0 0 0 0 0 0 0 0 0 0 0 0 0 0 0 0 0 0 0 0 0 0 0 0 0 0 0 0 0 0 0 0 0
0 0 0 0 0 0 0 0 0 0 0 0 0 0 0 0 0 0 0 0 0 0 0 0 -0 0 0 0 0 0 0 0 0 0 0 0 0 0 0 0 0 0 0
0 0 0 0 0 0 0 0 0 -0 0 0 0 0 0 0 0 0 0 0 0 0 0 0 0 0 0 0 0 0 0 0 0 0 0 0 0 0 0 0 0 0 0
0 0 0 0 0 0 0 0 0 -0 0 0 0 0 0 0 0 0 0 0 0 0 0 0 0 0 0 0 0 0 0 0 0 0 0 0 0 0 0 0 0 0 0
0 0 0 0 0 0 0 0 0 0 0 0 0 0 0 0 0 0 0 0 0 0 0 0 0 0 0 0 0 0 0 0 0 0 0 0 0 0 0 0 0 0 0
0 0 0 0 0 0 0 0 0 0 0 0 0 0 0 0 0 0 0 0 0 0 0 0 0 0 0 0 0 0 0 0 0 0 0 0 0 0 0 0 0 0 0
0 0 0 0 0 0 0 0 0 0 0 0 0 0 0 0 0 0 0 0 0 0 0 0 0 0 0 0 0 0 0 0 0 0 0 0 0 0 0 0 0 0 0
0 0 0 0 0 0 0 0 0 0 0 0 0 0 0 0 0 0 0 0 0 0 0 0 0 0 0 0 0 0 0 0 0 0 0 0 0 0 0 0 0 0 0
0 0 0 0 0 0 0 0 0 0 0 0 0 0 0 0 0 0 0 0 0 0 0 0 0 0 0 0 0 0 0 0 0 0 0 0 0 0 0 0 0 0 0
0 0 0 0 0 0 0 0 0 0 0 0 0 0 0 0 0 0 0 0 0 0 0 0 0 0 0 0 0 0 0 0 0 0 0 0 0 0 0 0 0 0 0
0 0 0 0 0 0 0 0 0 0 0 0 0 0 0 0 0 0 0 0 0 0 0 0 0 0 0 0 0 0 0 0 0 0 0 0 0 0 0 0 0 0 0
0 0 0 0 0 0 0 0 0 0 0 0 0 0 0 0 0 0 0 0 0 0 0 0 0 0 0 0 0 0 0 0 0 0 0 0 0 0 0 0 0 0 0
0 0 0 0 0 0 0 0 0 0 0 0 0 0 0 0 0 0 0 0 0 0 0 0 0 0 0 0 0 0 0 0 0 0 0 0 0 0 0 0 0 0 0
0 0 0 0 0 0 0 0 0 0 0 0 0 0 0 0 0 0 0 0 0 0 0 0 0 0 0 0 0 0 0 0 0 0 0 0 0 0 0 0 0 0 0
Wind_Speed
2 2 2 2 3 3 3 3 3 4 4 5 5 6 5 5 5 5 4 10 10 10 10 10 10 10 10 11 10 10 10 9 9 9 9 8 9 8 8 8 7 6 7
2 2 2 2 2 2 2 3 3 3 3 4 5 5 5 5 5 6 5 6 10 10 10 10 10 10 10 10 10 10 10 9 9 9 8 8 8 8 8 8 7 7 6
2 2 2 2 2 2 3 3 3 3 4 4 5 5 4 5 5 6 6 5 5 9 10 10 9 9 9 9 9 10 10 9 9 9 8 8 8 8 8 8 7 7 7
2 2 2 2 2 2 2 3 2 3 3 3 3 3 4 4 5 5 5 5 5 5 7 10 10 9 9 8 8 9 9 9 9 9 9 8 8 7 7 7 7 7 7
2 2 2 2 2 2 2 2 2 2 2 3 3 3 4 4 4 5 5 5 5 5 5 8 10 10 9 8 8 8 8 8 9 9 9 9 8 7 6 6 7 7 6
2 2 2 2 2 3 2 2 3 3 2 2 3 4 3 3 3 4 4 4 4 5 5 6 6 7 10 9 8 8 8 8 9 9 9 9 8 7 7 6 6 6 6
2 3 2 2 2 2 2 3 3 3 2 2 3 3 3 3 3 3 3 3 4 4 5 5 4 4 5 9 8 8 8 8 7 7 8 8 8 8 8 7 6 6 6
2 2 3 2 2 2 3 3 3 2 1 1 2 2 2 3 3 3 3 3 3 3 4 5 4 4 4 3 5 8 7 7 7 7 7 7 7 8 7 7 6 6 7
2 2 3 3 2 2 2 2 3 3 2 1 2 3 2 1 2 3 3 3 3 3 3 3 4 4 4 3 3 5 7 7 7 7 7 7 6 6 6 6 6 7 6
1 2 2 3 3 2 2 2 2 2 3 1 1 2 2 2 2 1 3 3 3 3 3 3 3 3 4 3 4 6 7 7 7 6 7 7 6 6 6 5 5 6 6
1 1 2 2 2 2 2 2 2 2 2 2 2 1 2 2 1 2 1 2 2 2 2 2 2 3 3 3 2 4 6 6 6 6 6 6 6 5 5 5 5 5 5
0 0 1 1 2 1 2 2 2 3 2 2 2 2 2 2 2 2 1 1 1 2 2 2 2 2 2 2 3 5 5 6 6 5 6 6 5 5 5 5 5 5 5
1 1 1 1 1 2 2 2 2 2 2 3 2 1 1 2 2 2 2 1 1 2 2 2 1 1 2 2 3 5 5 5 5 5 5 6 5 4 4 5 5 5 5
2 2 2 2 2 2 2 2 2 2 2 2 2 2 1 1 2 2 3 2 0 2 2 2 1 1 2 2 3 4 3 5 5 5 5 5 5 4 3 4 4 5 6
2 2 2 2 2 1 2 2 1 2 2 2 2 2 1 1 1 1 2 3 3 1 2 2 1 2 2 1 3 2 2 4 4 5 5 5 4 3 3 3 4 4 5
1 1 1 1 1 1 1 2 1 1 2 2 2 2 2 1 1 1 2 1 2 3 2 2 2 1 2 1 2 2 2 4 4 4 5 4 4 3 2 2 3 3 4
2 2 2 1 1 2 2 2 1 2 2 2 2 3 2 2 2 2 1 2 1 2 2 2 1 1 1 1 2 2 1 1 2 4 4 4 3 3 3 3 3 3 4
2 2 2 1 1 1 2 3 2 2 2 3 3 3 3 2 2 2 2 2 2 2 3 2 1 1 1 1 1 2 2 1 1 3 4 4 3 3 3 3 3 3 3
1 1 1 2 1 1 1 2 3 3 3 3 3 3 3 3 3 2 3 3 2 2 2 2 1 1 1 1 1 2 2 2 2 2 3 4 4 3 3 4 3 3 3
1 1 1 1 2 1 1 2 2 2 2 2 3 3 3 4 5 4 3 3 3 2 2 2 1 1 1 1 1 1 1 1 2 2 2 3 4 4 4 4 3 3 3
1 1 1 1 1 1 1 2 2 2 2 2 2 2 3 3 4 4 3 3 3 2 2 2 1 0 1 0 1 1 1 1 1 1 1 2 2 2 3 4 4 3 3
0 1 1 1 1 1 2 2 2 3 3 2 2 2 2 3 4 4 4 5 5 4 4 3 2 2 3 2 1 1 1 0 2 1 0 2 1 2 2 1 3 3 4
1 1 1 1 2 2 3 3 3 3 3 3 3 2 2 2 2 2 3 3 4 5 5 5 4 5 4 4 3 2 2 2 2 1 0 2 1 2 2 2 3 3 4
1 2 2 2 2 3 3 3 2 2 2 2 3 3 2 2 1 2 2 1 1 3 4 4 4 5 4 3 4 4 3 2 0 1 1 1 1 2 2 2 4 3 3
2 2 2 2 2 3 3 2 2 2 1 2 2 2 2 2 2 1 2 2 1 2 2 3 3 3 3 3 4 3 2 1 1 1 1 1 1 1 2 2 3 4 3
3 2 2 2 2 3 3 2 3 2 1 1 1 2 2 2 2 2 2 2 2 2 1 0 0 0 0 2 4 3 4 2 1 2 2 2 1 0 2 2 1 2 2
Wind_Direction
72 62 54 52 52 56 62 63 64 63 61 57 54 52 44 40 36 31 23 41 49 53 57 61 63 68 73 77 81 79 75 68 64 61 59 57 55 55 56 55 56 53 54
91 82 70 63 62 66 69 74 73 70 62 61 56 50 44 41 40 36 31 31 38 44 51 57 61 64 68 69 72 72 69 64 60 57 56 54 54 54 53 52 51 52 55
108 101 90 78 76 81 81 75 65 67 68 62 53 48 45 39 40 36 32 29 27 35 43 49 53 60 65 66 68 69 65 59 56 54 53 53 50 50 49 49 46 51 54
122 110 101 89 85 89 85 85 72 71 64 63 55 42 39 34 34 35 34 32 29 28 31 37 41 51 58 64 67 65 62 56 53 50 50 49 47 48 48 45 48 50 50
131 119 114 101 96 91 83 90 75 86 84 69 67 50 37 33 28 33 33 33 31 31 27 28 33 38 46 56 64 64 62 57 52 49 48 47 45 48 52 50 47 46 47
128 119 112 108 107 103 83 85 88 71 85 82 73 58 40 33 35 30 26 28 30 33 33 30 26 28 37 47 54 57 57 54 52 48 46 45 43 43 46 50 47 45 48
128 125 119 113 114 118 120 110 99 84 62 66 72 45 24 31 40 32 24 28 28 27 31 32 30 28 22 33 41 45 46 45 45 46 44 44 43 40 40 44 47 48 47
124 129 130 133 127 117 111 110 107 97 66 63 97 85 25 1 9 22 20 28 22 22 29 30 30 31 23 20 23 34 35 37 39 39 38 40 43 42 37 36 39 44 43
139 137 143 140 139 139 144 145 136 123 124 51 76 122 124 228 324 344 8 22 21 22 16 17 25 25 25 20 6 12 26 30 32 30 31 36 37 39 42 42 41 42 40
122 130 140 143 146 143 153 165 145 137 130 121 67 66 114 148 138 333 341 359 14 21 11 9 9 12 17 13 9 12 20 26 27 25 26 30 31 33 36 39 40 42 39
60 118 141 141 146 153 163 157 135 131 132 139 139 123 95 73 100 142 290 327 351 354 357 354 355 360 4 4 357 5 14 18 19 19 20 20 23 23 30 34 34 36 33
347 321 139 144 160 168 171 165 150 144 140 130 132 136 146 151 168 155 186 272 312 317 334 344 349 344 345 350 350 2 8 12 13 11 10 12 14 19 24 25 25 32 34
231 236 188 180 187 193 177 154 146 154 153 150 155 163 162 164 153 152 149 187 294 308 324 329 324 326 332 341 334 356 3 7 7 8 6 4 4 11 17 19 25 29 29
209 211 205 203 205 192 171 156 153 171 163 167 169 165 163 178 158 156 159 152 102 325 323 297 317 312 321 324 326 346 346 357 4 3 1 358 358 2 9 14 24 24 24
201 199 198 197 197 186 175 160 165 179 165 179 178 174 170 184 173 170 155 156 154 196 273 272 286 306 305 296 320 336 333 342 356 356 355 354 353 356 5 16 17 18 15
191 168 185 199 197 193 185 173 178 186 165 182 173 168 177 185 168 160 164 163 162 168 219 249 244 279 300 302 322 336 318 336 345 354 356 360 3 357 356 5 7 8 6
181 174 187 179 189 199 183 171 192 183 188 195 185 181 200 183 176 175 166 161 169 159 201 260 262 289 294 310 326 334 325 324 324 346 353 357 2 8 7 358 355 355 357
198 187 177 182 204 206 186 177 193 186 194 205 205 191 208 191 191 189 182 189 195 186 184 230 261 271 273 289 307 321 331 328 314 340 351 354 352 0 357 352 346 342 346
185 157 152 178 202 207 195 196 193 197 201 210 207 202 206 187 202 203 195 198 202 193 185 188 234 248 279 327 346 332 343 337 320 328 336 343 344 344 349 348 343 334 339
155 162 177 191 202 201 201 200 190 199 206 223 226 217 205 202 207 200 199 204 190 177 165 170 204 241 268 328 31 340 335 334 324 333 333 337 339 345 341 341 343 342 341
176 185 176 207 219 209 216 207 201 200 200 225 248 241 226 218 214 202 199 196 180 178 173 176 193 195 238 256 252 239 261 310 309 321 335 328 328 334 331 322 318 325 332
184 154 181 211 228 250 265 224 200 201 202 210 237 250 242 218 221 222 221 202 185 179 185 185 198 207 228 220 207 198 182 60 294 304 306 301 315 302 301 298 321 325 329
185 202 226 215 237 258 264 241 213 189 204 215 219 221 234 223 209 214 225 220 220 216 194 183 192 214 215 209 182 188 200 209 230 253 190 275 291 286 290 301 305 311 320
209 220 238 235 242 268 280 266 234 187 207 222 215 210 215 220 209 193 188 195 235 241 228 212 205 216 219 200 188 191 196 189 246 302 151 239 275 277 295 292 302 309 317
230 234 239 240 241 268 266 250 192 165 195 233 235 222 212 209 223 180 161 186 237 277 268 228 225 226 209 182 159 131 134 136 239 254 206 199 243 279 288 280 297 316 321
231 236 244 239 238 252 258 224 181 159 180 230 241 238 231 214 207 188 174 179 210 244 225 187 215 321 234 184 175 173 175 173 184 234 216 187 206 307 302 287 302 315 312